Flag for U.S.A. Weather past 2 weeks in Buffalo, New York, U.S.A.

Now
75 °F

Scattered clouds.


Feels Like: 78 °F
Forecast: 63 / 74 °F
Wind: 8 mph from Northwest

Location: Greater Buffalo International Airport

Current Time: Aug 27, 2014 at 2:08:13 PM

Latest Report: Aug 27, 2014 at 12:54 PM


Visibility: 10 mi

Pressure: 30.03 "Hg

Humidity: 55%

Dew point: 58 °F

Location of BuffaloLocation

Historic Weather in Buffalo — Graph

°F

Buffalo temperature yesterday

Maximum temperature yesterday: 84 °F (at 3:54 PM)
Minimum temperature yesterday: 65 °F (at 1:54 AM)
Average temperature yesterday: 75 °F

Past Weeks' High & Low Weather Summary

 TemperatureHumidityPressure
High84 °F (Aug 26, 3:54 PM)97% (Aug 23, 1:54 AM)30.19 "Hg (Aug 23, 1:54 AM)
Low55 °F (Aug 14, 6:54 AM)32% (Aug 19, 7:54 PM)29.70 "Hg (Aug 12, 3:54 PM)
Average68 °F70%29.95 "Hg
* Reported Aug 12 12:54 PM — Aug 27 12:54 PM, Buffalo, Weather by CustomWeather, © 2014

Note: Actual official high and low records may vary slightly from our data, if they occured in-between our weather recording intervals... More about our weather records

Advertising

Buffalo weather history for previous 24 hours

 ConditionsComfort  
Time TempWeatherWind HumidityBarometerVisibility
12:54 PM
Aug 27
75 °FScattered clouds.8 mph55%30.03 "Hg10 mi
11:54 AM73 °FPartly sunny.7 mph59%30.04 "Hg10 mi
10:54 AM70 °FPartly sunny.8 mph66%30.06 "Hg10 mi
9:54 AM69 °FPartly sunny.10 mph70%30.05 "Hg10 mi
8:54 AM71 °FPartly sunny.3 mph63%30.04 "Hg10 mi
7:54 AM70 °FPartly sunny.5 mph71%30.04 "Hg10 mi
6:54 AM70 °FOvercast.6 mph71%30.03 "Hg10 mi
5:54 AM71 °FOvercast.8 mph71%30.03 "Hg10 mi
4:54 AM72 °FOvercast.8 mph78%30.02 "Hg10 mi
4:01 AM73 °FOvercast.9 mph84%30.02 "Hg10 mi
2:54 AM75 °FMostly cloudy.8 mph79%30.00 "Hg10 mi
1:54 AM75 °FPassing clouds.6 mph76%30.00 "Hg10 mi
12:54 AM74 °FPartly cloudy.6 mph79%30.00 "Hg10 mi
11:54 PM
Aug 26
75 °FPassing clouds.3 mph74%29.98 "Hg10 mi
10:54 PM76 °FPassing clouds.8 mph74%29.99 "Hg10 mi
9:54 PM76 °FPassing clouds.10 mph74%30.01 "Hg10 mi
8:54 PM76 °FBroken clouds.10 mph77%30.01 "Hg10 mi
7:54 PM77 °FPartly sunny.10 mph71%30.01 "Hg10 mi
6:54 PM81 °FPartly sunny.12 mph60%30.02 "Hg10 mi
5:54 PM83 °FPassing clouds.15 mph57%30.02 "Hg10 mi
4:54 PM83 °FPassing clouds.13 mph55%30.03 "Hg10 mi
3:54 PM84 °FPassing clouds.16 mph53%30.03 "Hg10 mi
2:54 PM83 °FPassing clouds.18 mph53%30.05 "Hg10 mi
Weather by CustomWeather, © 2014

See weather overviewHow to use our weather pages